When you browse on this site, cookies collect data to enhance your experience and personalize the content and advertising you see.
Visit our Privacy Policy to learn more. By continuing to use the site, you agree to this use of cookies and data.
  • în România
  • Lista ţărilor
  • Pe 7 zile
  • Temperatura apei
  • Hartă satelitară
  • Meteo pe hartă
  • Widget-uri
  • user-avatar
    Intrare

    Meteo pe oră la Bagdad

    Astăzi, 24 Martie, Duminică

    Timp Temperatura Precipitaţii Vânt Presiune Umiditate
    00:00 +22°C° 0.1 mm 3 m/s 754 mmHg 27%
    01:00 +21°C° 0.2 mm 3 m/s 754 mmHg 28%
    02:00 +21°C° 0.2 mm 4 m/s 753 mmHg 30%
    03:00 +20°C° 0 mm 5 m/s 752 mmHg 34%
    04:00 +20°C° 0.1 mm 6 m/s 752 mmHg 34%
    05:00 +20°C° 0.1 mm 6 m/s 752 mmHg 35%
    06:00 +20°C° 0.1 mm 6 m/s 751 mmHg 35%
    07:00 +21°C° 0 mm 8 m/s 751 mmHg 34%
    08:00 +22°C° 0 mm 10 m/s 750 mmHg 32%
    09:00 +23°C° 0 mm 11 m/s 750 mmHg 31%
    10:00 +26°C° 0 mm 11 m/s 749 mmHg 32%
    11:00 +27°C° 0 mm 11 m/s 749 mmHg 32%
    12:00 +28°C° 0 mm 11 m/s 748 mmHg 33%
    13:00 +28°C° 0 mm 10 m/s 748 mmHg 33%
    14:00 +27°C° 0 mm 9 m/s 747 mmHg 33%
    15:00 +27°C° 0 mm 8 m/s 747 mmHg 33%
    16:00 +26°C° 0.1 mm 8 m/s 747 mmHg 37%
    17:00 +26°C° 0.1 mm 8 m/s 746 mmHg 41%
    18:00 +24°C° 0.1 mm 8 m/s 746 mmHg 45%
    19:00 +23°C° 0.5 mm 10 m/s 746 mmHg 48%
    20:00 +23°C° 0.5 mm 11 m/s 746 mmHg 52%
    21:00 +22°C° 0.5 mm 13 m/s 745 mmHg 55%
    22:00 +22°C° 0.1 mm 14 m/s 745 mmHg 58%
    23:00 +22°C° 0.1 mm 15 m/s 744 mmHg 61%

    Mâine, 25 Martie, Luni

    Timp Temperatura Precipitaţii Vânt Presiune Umiditate
    00:00 +20°C° 0.1 mm 16 m/s 743 mmHg 64%
    01:00 +20°C° 2 mm 15 m/s 743 mmHg 68%
    02:00 +19°C° 2 mm 15 m/s 743 mmHg 71%
    03:00 +19°C° 2 mm 14 m/s 742 mmHg 75%
    04:00 +19°C° 2 mm 14 m/s 742 mmHg 75%
    05:00 +19°C° 2 mm 14 m/s 742 mmHg 75%
    06:00 +19°C° 2 mm 13 m/s 742 mmHg 76%
    07:00 +19°C° 1.3 mm 11 m/s 743 mmHg 71%
    08:00 +19°C° 1.3 mm 10 m/s 744 mmHg 67%
    09:00 +20°C° 1.3 mm 8 m/s 745 mmHg 62%
    10:00 +21°C° 0 mm 8 m/s 745 mmHg 56%
    11:00 +22°C° 0 mm 8 m/s 746 mmHg 50%
    12:00 +23°C° 0 mm 8 m/s 747 mmHg 44%
    13:00 +23°C° 0.2 mm 8 m/s 747 mmHg 42%
    14:00 +23°C° 0.2 mm 7 m/s 747 mmHg 41%
    15:00 +24°C° 0.2 mm 7 m/s 748 mmHg 40%
    16:00 +23°C° 0.1 mm 5 m/s 748 mmHg 39%
    17:00 +24°C° 0.1 mm 3 m/s 749 mmHg 38%
    18:00 +24°C° 0.1 mm 2 m/s 749 mmHg 37%
    19:00 +23°C° 0 mm 2 m/s 750 mmHg 39%
    20:00 +22°C° 0 mm 3 m/s 750 mmHg 40%
    21:00 +22°C° 0 mm 3 m/s 751 mmHg 42%
    22:00 +21°C° 0 mm 4 m/s 751 mmHg 42%
    23:00 +20°C° 0 mm 4 m/s 751 mmHg 43%

    Poimâine, 26 Martie, Marţi

    Timp Temperatura Precipitaţii Vânt Presiune Umiditate
    00:00 +20°C° 0 mm 5 m/s 751 mmHg 43%
    01:00 +19°C° 0 mm 4 m/s 751 mmHg 45%
    02:00 +19°C° 0 mm 2 m/s 751 mmHg 46%
    03:00 +19°C° 0 mm 1 m/s 751 mmHg 48%
    04:00 +18°C° 0 mm 3 m/s 751 mmHg 55%
    05:00 +16°C° 0 mm 5 m/s 751 mmHg 63%
    06:00 +15°C° 0 mm 7 m/s 751 mmHg 70%
    07:00 +16°C° 0 mm 7 m/s 752 mmHg 64%
    08:00 +17°C° 0 mm 7 m/s 752 mmHg 58%
    09:00 +18°C° 0 mm 7 m/s 753 mmHg 52%
    10:00 +17°C° 0.8 mm 7 m/s 753 mmHg 55%
    11:00 +16°C° 0.8 mm 6 m/s 753 mmHg 58%
    12:00 +16°C° 0.8 mm 6 m/s 753 mmHg 61%
    13:00 +16°C° 1.2 mm 5 m/s 753 mmHg 62%
    14:00 +16°C° 1.2 mm 5 m/s 753 mmHg 63%
    15:00 +16°C° 1.2 mm 5 m/s 753 mmHg 63%
    16:00 +17°C° 0 mm 4 m/s 753 mmHg 61%
    17:00 +17°C° 0 mm 4 m/s 754 mmHg 59%
    18:00 +17°C° 0 mm 3 m/s 754 mmHg 57%
    19:00 +17°C° 0 mm 2 m/s 755 mmHg 57%
    20:00 +17°C° 0 mm 2 m/s 756 mmHg 57%
    21:00 +18°C° 0 mm 1 m/s 757 mmHg 57%
    22:00 +16°C° 0 mm 1 m/s 757 mmHg 58%
    23:00 +16°C° 0 mm 1 m/s 757 mmHg 59%

    27 Martie, Miercuri

    Timp Temperatura Precipitaţii Vânt Presiune Umiditate
    00:00 +16°C° 0 mm 1 m/s 757 mmHg 61%
    01:00 +16°C° 0 mm 2 m/s 757 mmHg 63%
    02:00 +14°C° 0 mm 3 m/s 758 mmHg 66%
    03:00 +14°C° 0 mm 3 m/s 758 mmHg 68%
    04:00 +14°C° 0 mm 3 m/s 758 mmHg 70%
    05:00 +13°C° 0 mm 4 m/s 759 mmHg 71%
    06:00 +13°C° 0 mm 4 m/s 759 mmHg 73%
    07:00 +15°C° 0 mm 4 m/s 759 mmHg 67%
    08:00 +16°C° 0 mm 5 m/s 760 mmHg 61%
    09:00 +17°C° 0 mm 5 m/s 761 mmHg 54%
    10:00 +20°C° 0 mm 5 m/s 761 mmHg 48%
    11:00 +21°C° 0 mm 5 m/s 760 mmHg 42%
    12:00 +22°C° 0 mm 4 m/s 760 mmHg 36%
    13:00 +22°C° 0 mm 4 m/s 760 mmHg 35%
    14:00 +24°C° 0 mm 3 m/s 759 mmHg 34%
    15:00 +24°C° 0 mm 3 m/s 759 mmHg 33%
    16:00 +23°C° 0 mm 2 m/s 759 mmHg 33%
    17:00 +23°C° 0 mm 2 m/s 759 mmHg 34%
    18:00 +23°C° 0 mm 2 m/s 759 mmHg 34%
    19:00 +21°C° 0 mm 3 m/s 759 mmHg 37%
    20:00 +21°C° 0 mm 4 m/s 759 mmHg 40%
    21:00 +20°C° 0 mm 5 m/s 759 mmHg 43%
    22:00 +19°C° 0 mm 5 m/s 759 mmHg 44%
    23:00 +19°C° 0 mm 5 m/s 759 mmHg 44%

    28 Martie, Joi

    Timp Temperatura Precipitaţii Vânt Presiune Umiditate
    00:00 +19°C° 0 mm 6 m/s 758 mmHg 45%
    01:00 +17°C° 0 mm 5 m/s 758 mmHg 46%
    02:00 +17°C° 0 mm 5 m/s 758 mmHg 47%
    03:00 +17°C° 0 mm 5 m/s 758 mmHg 48%
    04:00 +17°C° 0.1 mm 4 m/s 758 mmHg 49%
    05:00 +17°C° 0.1 mm 4 m/s 758 mmHg 49%
    06:00 +17°C° 0.1 mm 3 m/s 759 mmHg 50%
    07:00 +18°C° 0.2 mm 4 m/s 759 mmHg 46%
    08:00 +20°C° 0.2 mm 5 m/s 759 mmHg 43%
    09:00 +21°C° 0.2 mm 6 m/s 760 mmHg 39%
    10:00 +22°C° 0.1 mm 6 m/s 760 mmHg 34%
    11:00 +25°C° 0.1 mm 5 m/s 759 mmHg 29%
    12:00 +26°C° 0.1 mm 5 m/s 759 mmHg 24%
    13:00 +26°C° 0 mm 5 m/s 759 mmHg 23%
    14:00 +27°C° 0 mm 5 m/s 758 mmHg 22%
    15:00 +27°C° 0 mm 5 m/s 758 mmHg 21%
    16:00 +26°C° 0 mm 5 m/s 758 mmHg 23%
    17:00 +25°C° 0 mm 4 m/s 758 mmHg 26%
    18:00 +25°C° 0 mm 4 m/s 758 mmHg 28%
    19:00 +24°C° 0 mm 3 m/s 758 mmHg 31%
    20:00 +22°C° 0 mm 3 m/s 759 mmHg 34%
    21:00 +21°C° 0 mm 3 m/s 759 mmHg 38%
    22:00 +20°C° 0 mm 2 m/s 759 mmHg 40%
    23:00 +20°C° 0 mm 2 m/s 759 mmHg 43%

    29 Martie, Vineri

    Timp Temperatura Precipitaţii Vânt Presiune Umiditate
    00:00 +20°C° 0 mm 1 m/s 759 mmHg 45%
    01:00 +20°C° 0 mm 1 m/s 759 mmHg 45%
    02:00 +20°C° 0 mm 1 m/s 759 mmHg 44%
    03:00 +20°C° 0 mm 1 m/s 759 mmHg 43%
    04:00 +20°C° 0 mm 1 m/s 759 mmHg 44%
    05:00 +20°C° 0 mm 1 m/s 759 mmHg 44%
    06:00 +19°C° 0 mm 1 m/s 759 mmHg 45%
    07:00 +19°C° 0 mm 2 m/s 759 mmHg 42%
    08:00 +20°C° 0 mm 2 m/s 760 mmHg 40%
    09:00 +23°C° 0 mm 2 m/s 760 mmHg 37%
    10:00 +23°C° 0 mm 1 m/s 760 mmHg 33%
    11:00 +22°C° 0 mm 0 m/s 759 mmHg 30%
    12:00 +23°C° 0 mm 0 m/s 759 mmHg 26%
    13:00 +24°C° 0 mm 0 m/s 759 mmHg 25%
    14:00 +24°C° 0 mm 0 m/s 758 mmHg 24%
    15:00 +24°C° 0 mm 0 m/s 758 mmHg 23%
    16:00 +24°C° 0 mm 0 m/s 757 mmHg 24%
    17:00 +26°C° 0 mm 1 m/s 757 mmHg 25%
    18:00 +26°C° 0 mm 1 m/s 757 mmHg 26%
    19:00 +25°C° 0 mm 2 m/s 757 mmHg 26%
    20:00 +25°C° 0 mm 3 m/s 757 mmHg 27%
    21:00 +24°C° 0 mm 3 m/s 757 mmHg 27%
    22:00 +23°C° 0 mm 4 m/s 757 mmHg 28%
    23:00 +23°C° 0 mm 4 m/s 757 mmHg 28%
    Arată mai mult